DW8065 Weather Reports


Display with metric or nautical units.
time (UTC)temp
F
wind
direction
speed
MPH
gust
MPH
rain 1hr
in
rain 24hr
in
rain mn
in
humidity
%
barometer
mb
20260510111601 47 296 0.0 2.0 0.00 0.22 0.00 93 1011.9
20260510104557 47 33 0.0 2.0 0.00 0.22 0.00 93 1011.6
20260510103057 47 290 0.0 2.0 0.00 0.22 0.00 93 1011.3
20260510101603 47 326 1.0 6.0 0.00 0.22 0.00 93 1010.8
20260510100054 46 293 2.0 5.0 0.00 0.22 0.00 93 1010.7
20260510094552 46 275 0.0 1.0 0.00 0.22 0.00 93 1010.5
20260510093048 46 23 0.0 0.0 0.00 0.22 0.00 93 1010.4
20260510091548 46 23 0.0 1.0 0.00 0.22 0.00 93 1010.3
20260510090048 46 23 0.0 0.0 0.00 0.22 0.00 93 1010.7
20260510084556 46 23 0.0 2.0 0.00 0.22 0.00 93 1010.7
20260510081544 46 304 1.0 3.0 0.00 0.22 0.00 93 1011.2
20260510080058 46 340 0.0 1.0 0.00 0.22 0.00 93 1011.0
20260510074541 45 318 0.0 2.0 0.00 0.22 0.00 93 1011.0
20260510073048 46 330 1.0 4.0 0.00 0.22 0.00 93 1010.9
20260510071540 46 209 0.0 5.0 0.00 0.22 0.00 93 1010.9
20260510070046 46 165 0.0 0.0 0.00 0.22 0.00 93 1011.1
20260510064543 46 159 0.0 0.0 0.00 0.22 0.00 93 1011.2
20260510063038 46 159 0.0 0.0 0.00 0.22 0.00 93 1011.2
20260510061534 46 159 0.0 0.0 0.00 0.22 0.00 93 1011.5
20260510060040 46 159 0.0 0.0 0.00 0.22 0.00 93 1011.4
20260510054532 46 159 0.0 0.0 0.00 0.22 0.00 93 1011.4
20260510053034 46 159 0.0 0.0 0.00 0.22 0.00 93 1011.5
20260510051530 46 159 0.0 0.0 0.00 0.22 0.00 92 1011.5
20260510050036 46 159 0.0 0.0 0.00 0.22 0.00 92 1011.9
20260510044528 46 159 0.0 0.0 0.00 0.22 0.00 93 1011.7
20260510043029 46 159 0.0 0.0 0.00 0.22 0.00 92 1011.7
20260510041527 46 159 0.0 0.0 0.00 0.22 0.00 92 1011.7
20260510040023 46 159 0.0 1.0 0.00 0.22 0.00 92 1011.7
20260510034524 46 107 0.0 1.0 0.00 0.22 0.22 92 1011.8
20260510033024 45 120 0.0 1.0 0.00 0.22 0.22 93 1011.7
20260510031525 45 291 0.0 1.0 0.00 0.22 0.22 92 1011.9
20260510030021 45 99 0.0 1.0 0.00 0.22 0.22 92 1012.0
20260510024522 45 136 0.0 1.0 0.00 0.22 0.22 92 1012.0
20260510023021 45 81 0.0 1.0 0.00 0.22 0.22 92 1012.2
20260510021548 45 79 0.0 1.0 0.00 0.22 0.22 92 1012.4
20260510020019 45 108 0.0 1.0 0.00 0.22 0.22 92 1012.3
20260510014531 45 97 0.0 1.0 0.00 0.22 0.22 92 1012.4
20260510013018 45 138 0.0 1.0 0.00 0.22 0.22 92 1012.4
20260510011518 45 82 0.0 1.0 0.00 0.22 0.22 92 1012.5
20260510010029 45 123 0.0 0.0 0.00 0.22 0.22 92 1012.5
20260510004520 45 134 0.0 0.0 0.00 0.22 0.22 92 1012.4
20260510003019 45 294 0.0 1.0 0.00 0.22 0.22 92 1012.2
20260510001516 46 293 0.0 1.0 0.00 0.22 0.22 92 1012.0
20260510000016 46 294 0.0 0.0 0.00 0.22 0.22 92 1011.8
20260509234518 46 293 0.0 1.0 0.00 0.22 0.22 92 1011.7
20260509233014 46 156 0.0 0.0 0.00 0.22 0.22 92 1011.6
20260509231514 46 132 0.0 1.0 0.00 0.22 0.22 92 1011.6
20260509230022 46 132 0.0 0.0 0.00 0.22 0.22 92 1011.7
20260509224511 46 132 0.0 1.0 0.00 0.22 0.22 92 1011.8
20260509223011 45 132 0.0 0.0 0.00 0.22 0.22 92 1011.8
20260509221511 46 132 0.0 1.0 0.00 0.22 0.22 92 1011.9
20260509220008 46 99 0.0 0.0 0.00 0.22 0.22 92 1012.0
20260509214508 46 99 0.0 1.0 0.00 0.22 0.22 92 1012.2
20260509213010 46 99 0.0 0.0 0.00 0.22 0.22 91 1012.2
20260509211509 46 99 0.0 0.0 0.01 0.22 0.22 91 1012.2
20260509210006 46 112 0.0 2.0 0.01 0.22 0.22 91 1012.1
20260509204505 46 112 0.0 1.0 0.01 0.22 0.22 91 1012.1
20260509203004 46 103 0.0 2.0 0.01 0.22 0.22 91 1012.2
20260509201510 46 118 0.0 2.0 0.01 0.21 0.21 91 1012.2
20260509200002 46 99 0.0 1.0 0.02 0.21 0.21 91 1012.4
20260509194502 46 156 0.0 0.0 0.04 0.21 0.21 91 1012.3
20260509193101 46 156 0.0 2.0 0.06 0.21 0.21 91 1012.5
20260509191608 46 293 0.0 1.0 0.08 0.20 0.20 91 1012.6
20260509190058 46 137 0.0 1.0 0.09 0.19 0.19 91 1012.9
20260509184609 46 114 0.0 4.0 0.09 0.17 0.17 90 1012.9
20260509183100 46 98 0.0 1.0 0.08 0.14 0.14 90 1012.9
20260509181602 47 99 0.0 2.0 0.07 0.12 0.12 90 1013.0
20260509180107 47 78 0.0 2.0 0.05 0.09 0.09 89 1013.2
20260509174551 47 94 0.0 2.0 0.06 0.08 0.08 89 1013.3
20260509173103 47 148 0.0 3.0 0.04 0.06 0.06 89 1013.4
20260509171550 47 58 0.0 3.0 0.03 0.05 0.05 88 1013.5
20260509170050 47 114 0.0 5.0 0.03 0.04 0.04 87 1013.6
20260509164548 47 110 0.0 2.0 0.01 0.02 0.02 86 1013.6
20260509163051 47 90 0.0 3.0 0.01 0.02 0.02 85 1013.7
20260509161558 48 101 0.0 3.0 0.02 0.02 0.02 84 1013.7
20260509160047 48 82 0.0 2.0 0.01 0.01 0.01 83 1014.1
20260509154549 48 126 0.0 3.0 0.01 0.01 0.01 80 1014.3
20260509153056 49 139 0.0 2.0 0.01 0.01 0.01 78 1014.4
20260509151545 49 124 0.0 2.0 0.00 0.00 0.00 75 1014.2
20260509150044 50 132 0.0 3.0 0.00 0.00 0.00 71 1014.1
20260509144546 51 77 0.0 6.0 0.00 0.00 0.00 66 1014.1
20260509143042 51 99 0.0 3.0 0.00 0.00 0.00 56 1014.0
20260509141543 51 90 0.0 2.0 0.00 0.00 0.00 55 1013.9
20260509140052 51 142 0.0 7.0 0.00 0.00 0.00 58 1013.9
20260509134532 48 26 0.0 0.0 0.00 0.00 0.00 68 1014.0
20260509133028 46 309 0.0 2.0 0.00 0.00 0.00 71 1014.2
20260509131524 44 286 1.0 3.0 0.00 0.00 0.00 72 1014.1
20260509130020 42 290 2.0 4.0 0.00 0.00 0.00 75 1014.2
20260509124514 40 309 1.0 3.0 0.00 0.00 0.00 78 1014.5
20260509123010 39 311 1.0 3.0 0.00 0.00 0.00 81 1014.8
20260509121510 38 309 0.0 3.0 0.00 0.00 0.00 85 1014.9
20260509120010 38 14 0.0 1.0 0.00 0.00 0.00 89 1015.0
20260509114509 36 14 0.0 2.0 0.00 0.00 0.00 89 1015.2
20260509113008 36 20 0.0 2.0 0.00 0.00 0.00 92 1015.3